Temperature
17 18 19 19 19 20 21 23 25 25 26 26 25 25 25 23 22 19 19 18 18 18 18 16 15 15 14 14 13 13 12 12 12 12 11 11 11 11 11 11 11 11 11 11 11 12 12 12 13
17 18 19 20 19 20 22 24 25 25 25 25 25 25 25 23 21 20 19 18 18 18 17 16 16 15 14 13 13 13 12 12 12 11 11 11 11 11 11 11 11 11 11 11 11 12 12 13 13
18 18 20 20 20 21 23 25 25 25 25 25 25 25 24 23 21 20 20 19 18 17 17 17 16 15 14 13 13 13 12 12 11 11 11 10 10 11 11 11 11 11 12 11 11 12 12 12 13
18 19 20 20 21 23 24 25 25 25 25 25 25 24 23 22 21 21 20 19 18 17 17 17 16 15 14 13 13 13 12 12 11 11 11 10 11 11 11 11 11 11 11 11 11 12 12 12 12
18 20 19 20 21 24 25 26 25 24 24 24 25 24 22 21 21 21 20 19 18 17 17 17 16 15 14 13 13 12 12 12 11 11 10 10 11 11 11 11 11 11 11 11 11 11 12 12 12
19 20 20 20 22 24 25 25 25 24 25 25 25 24 21 21 21 20 20 19 18 17 17 17 16 15 14 13 13 13 12 11 11 11 10 10 11 11 11 11 11 11 11 11 11 11 11 12 12
19 19 19 21 23 24 25 25 25 24 24 25 25 24 21 20 21 20 19 18 17 17 17 17 16 15 14 13 13 12 12 11 11 11 10 11 11 11 11 11 11 11 11 11 11 11 11 11 11
19 20 20 21 22 23 25 24 24 24 24 25 24 24 21 20 20 20 19 18 17 16 16 17 16 15 14 13 12 12 12 11 11 11 11 11 11 10 10 11 11 11 10 10 10 10 10 10 10
19 18 19 21 23 24 24 24 24 24 24 24 24 22 21 21 20 19 19 18 17 16 16 16 16 15 14 13 12 12 12 11 11 11 10 10 10 10 10 10 10 10 10 10 10 10 10 10 9
19 17 20 22 23 23 24 23 24 23 23 23 23 21 21 20 20 19 19 18 17 17 16 15 15 15 14 13 12 12 11 11 11 11 10 10 10 9 9 9 10 10 10 9 9 9 9 9 9
19 18 20 22 23 22 22 23 23 23 22 23 23 22 21 20 19 19 19 19 18 17 16 15 15 14 14 13 12 12 11 11 11 10 10 10 9 9 9 9 9 9 9 9 9 9 9 8 8
20 20 21 22 22 21 21 22 22 22 23 23 23 22 21 20 20 19 19 18 18 17 17 16 15 14 14 13 12 12 11 11 11 10 10 10 10 9 9 9 9 9 9 9 9 9 9 8 8
19 20 21 21 21 21 21 21 21 22 22 22 22 22 21 21 20 20 19 19 18 17 17 16 15 14 14 13 12 12 11 11 11 10 10 10 10 10 9 9 9 9 9 9 9 9 9 8 8
20 20 21 21 21 21 20 20 21 21 22 22 22 22 21 21 21 20 20 20 19 18 17 16 15 14 14 13 13 12 12 11 11 10 10 10 10 10 9 9 9 9 9 9 9 9 9 9 8
20 19 19 20 21 21 20 19 19 21 21 22 21 21 21 21 21 21 21 20 20 19 17 16 15 14 14 13 13 12 12 11 11 10 10 10 10 9 9 9 9 9 9 9 9 9 9 9 8
19 18 18 19 20 20 19 17 20 21 21 21 21 22 22 21 21 21 21 20 20 19 18 16 15 14 14 13 13 12 12 11 11 10 10 10 10 10 10 9 9 9 9 9 9 9 9 8 8
18 17 18 19 20 20 18 18 20 21 21 21 21 21 22 22 21 21 20 20 19 19 18 17 16 15 14 13 13 12 11 11 11 10 10 10 10 10 10 9 9 9 9 9 9 9 9 8 8
17 18 18 19 20 19 18 18 19 21 21 21 21 21 22 22 22 21 21 20 19 19 18 17 16 15 14 13 12 12 11 11 11 11 10 10 10 10 10 10 9 9 9 9 9 9 8 8 8
18 19 19 20 20 19 18 18 19 20 21 21 21 21 22 22 22 21 21 20 19 18 18 17 16 15 14 13 13 12 12 11 11 11 11 10 10 10 10 9 9 9 9 9 9 9 8 8 8
18 18 18 19 20 19 18 18 19 19 20 21 21 21 21 21 21 21 21 20 19 18 17 17 16 15 14 14 14 13 12 11 11 11 11 10 10 10 10 10 9 9 9 9 9 9 8 8 8
18 17 18 18 19 19 18 17 18 19 20 21 21 21 21 21 21 20 20 19 19 18 17 16 16 15 14 14 13 12 11 11 11 10 10 10 10 10 10 10 10 9 9 9 9 9 8 8 7
17 18 18 18 17 16 17 15 18 19 19 19 20 21 21 20 20 20 19 18 18 17 17 16 15 15 14 14 13 12 12 11 11 11 11 10 10 10 10 10 10 9 9 9 9 9 8 8 7
18 19 18 18 16 15 16 15 17 19 19 19 19 21 20 20 19 19 18 18 17 16 16 15 15 14 14 13 13 12 12 11 11 11 10 10 10 10 10 10 10 9 9 9 9 8 8 8 7
18 18 17 17 15 14 15 15 16 18 19 20 20 20 20 19 19 18 17 17 16 15 15 14 14 13 13 13 12 12 11 11 11 10 10 10 10 10 10 10 10 9 9 9 9 8 8 8 7
17 16 14 13 13 13 16 16 17 20 20 20 20 20 20 19 18 17 17 16 15 14 14 13 13 13 12 12 12 12 11 11 11 11 11 10 10 10 10 10 9 9 9 9 9 8 8 7 7
16 16 14 13 14 15 16 16 18 20 20 20 20 20 19 18 17 17 16 15 14 14 13 12 12 12 12 12 12 11 11 11 10 10 11 11 11 11 10 10 9 9 9 9 8 8 7 7 7
16 15 16 15 15 15 16 17 19 19 19 19 19 19 18 18 17 16 15 14 14 13 12 12 12 12 12 12 11 11 10 10 10 10 10 10 10 10 10 10 9 9 9 8 8 7 7 7 6
17 16 15 14 13 13 15 16 17 18 18 18 18 18 18 17 16 15 15 14 13 12 12 11 11 11 11 11 11 11 10 10 10 10 10 10 10 10 10 9 9 9 8 8 8 7 7 6 6
15 16 15 14 14 13 14 16 19 18 18 18 18 18 18 17 16 15 15 14 13 12 12 11 11 11 11 11 11 10 10 10 10 10 10 10 10 10 10 9 9 9 8 8 7 7 6 6 5
16 16 15 14 14 14 14 16 20 19 18 18 18 18 18 17 16 15 14 14 13 12 12 11 11 11 11 11 11 10 10 10 10 10 10 10 10 10 9 9 9 8 8 7 7 6 6 6 5
Wind_Speed
13 14 9 3 4 6 9 8 4 3 4 6 7 3 5 8 6 8 7 10 16 16 21 20 19 18 17 17 16 16 15 15 14 13 13 13 13 13 14 14 14 15 15 15 15 15 15 15 15
12 9 5 4 5 7 8 7 4 5 6 8 6 1 2 7 9 10 7 11 16 17 21 19 20 18 17 17 17 16 15 15 14 13 13 12 13 13 13 13 14 14 14 14 14 14 14 15 14
11 10 4 4 6 9 5 7 7 7 8 6 5 1 3 8 11 9 10 13 14 15 20 20 21 19 18 18 17 16 15 15 14 13 12 12 12 12 12 13 13 13 13 13 13 13 13 13 13
6 4 5 6 10 10 5 3 7 9 7 4 5 5 5 7 6 10 13 13 14 13 20 22 21 20 19 18 17 16 16 15 14 13 12 12 12 11 12 12 12 12 12 12 12 12 12 12 12
4 4 7 8 12 8 2 3 5 7 9 7 6 5 8 7 14 15 13 13 14 13 19 22 21 20 19 18 17 17 16 15 14 13 12 11 11 11 11 11 10 10 10 10 10 10 10 10 10
4 4 6 9 11 7 3 4 3 5 8 9 7 4 7 10 13 13 12 12 13 13 18 21 21 20 19 18 18 17 16 15 14 13 12 11 11 10 10 9 9 9 9 8 8 8 8 8 8
6 6 9 11 8 5 5 5 7 7 7 8 6 4 9 11 12 13 11 11 12 13 16 18 19 19 18 18 18 18 17 15 14 13 12 11 10 10 9 8 8 7 7 7 6 6 6 5 5
5 5 9 10 8 4 5 4 4 5 4 3 4 2 9 12 12 12 11 10 12 12 14 15 18 18 17 17 19 18 17 16 15 14 13 12 11 10 9 8 7 5 5 4 4 3 3 2 1
5 5 8 9 5 2 5 4 4 2 4 1 4 7 10 14 13 11 9 8 10 11 13 14 14 17 18 18 19 19 18 17 16 15 15 13 12 12 11 10 7 5 4 3 2 1 1 2 4
6 6 9 6 4 3 3 4 4 4 6 5 6 8 10 11 11 12 11 11 12 12 12 13 13 14 16 17 18 17 16 16 16 15 15 13 12 11 10 11 8 6 5 4 4 4 5 7 6
8 8 10 8 5 6 3 3 4 5 8 8 8 13 13 11 11 12 12 12 12 12 12 12 13 14 13 11 15 14 14 15 15 16 16 12 10 9 9 10 9 9 8 7 7 8 9 6 2
11 11 11 8 1 0 5 5 6 7 8 4 0 10 14 13 13 13 13 12 12 13 13 12 12 12 12 13 12 12 11 12 11 14 15 11 7 7 7 7 8 8 8 6 6 6 6 4 3
14 13 11 7 3 5 6 8 8 9 9 5 3 3 9 11 12 12 12 12 13 14 14 13 13 12 11 10 9 10 10 12 13 13 14 12 8 5 6 6 6 6 5 4 4 4 3 2 2
9 10 12 10 8 7 8 10 10 11 9 8 7 7 9 11 12 11 12 12 13 15 15 13 13 12 11 10 8 8 10 12 13 13 13 13 11 8 6 4 5 5 4 4 3 2 1 1 2
8 9 10 11 11 9 7 11 14 14 11 10 10 10 11 12 12 11 11 11 11 14 15 14 13 13 13 11 9 9 11 12 10 12 14 13 12 9 7 4 3 5 5 4 2 2 1 2 2
8 9 11 11 11 8 7 11 10 9 10 11 11 10 10 11 11 10 10 10 10 13 15 15 13 13 14 11 10 8 11 11 10 13 14 14 13 11 8 4 4 5 5 3 1 1 0 1 2
11 11 12 11 11 9 10 9 9 6 7 9 10 10 10 10 11 11 12 11 11 12 14 16 14 14 14 12 9 8 9 9 11 13 13 13 13 12 9 5 5 6 4 2 1 1 0 1 2
10 13 13 11 9 10 11 10 10 8 8 10 11 11 11 11 11 11 12 12 12 11 13 15 15 13 12 11 9 7 7 7 9 10 11 14 13 12 10 6 5 6 3 2 1 1 1 0 1
13 11 10 7 6 7 9 11 11 11 10 11 11 11 11 11 10 9 10 11 11 11 12 15 15 14 12 11 11 10 9 7 7 7 12 13 13 12 8 5 4 4 3 3 3 2 0 0 1
17 15 12 8 5 6 8 12 12 13 13 13 13 12 11 9 7 6 8 10 11 11 12 14 15 15 13 11 10 9 8 6 6 6 8 12 12 12 9 6 4 4 3 3 3 2 1 0 1
17 14 13 10 7 7 7 11 14 14 15 14 12 11 10 9 8 6 7 9 10 11 12 12 14 14 13 12 9 8 6 5 5 7 7 8 12 12 10 8 6 5 4 4 3 3 3 1 0
15 13 11 10 8 7 7 9 9 10 11 12 11 10 9 8 6 6 7 9 10 10 10 11 12 13 14 14 13 14 10 8 7 7 6 7 10 11 11 9 8 5 4 5 4 3 2 3 1
12 8 9 9 9 11 11 10 8 10 11 11 10 9 7 5 5 6 7 8 9 9 9 10 10 12 13 14 14 14 10 7 7 8 9 8 7 9 11 10 8 6 4 5 5 4 3 2 2
10 6 5 6 6 11 13 11 8 9 10 6 6 6 6 5 5 6 6 6 7 8 8 9 10 11 12 13 14 14 13 11 12 11 11 9 7 6 8 9 8 6 5 6 5 4 4 2 2
11 8 5 6 7 8 10 10 8 7 5 4 3 3 5 5 5 6 7 8 9 10 9 9 11 11 12 13 14 14 13 13 14 13 11 11 8 6 8 7 6 6 6 6 5 4 4 3 3
15 15 10 8 6 5 7 9 6 5 6 5 4 4 4 5 5 6 7 8 9 10 10 10 11 11 12 13 13 12 12 10 10 11 10 10 8 8 9 8 8 8 8 7 5 4 4 3 4
17 17 14 8 8 6 6 6 8 7 6 6 6 5 5 6 6 6 7 8 9 11 11 11 12 11 12 12 11 11 12 11 10 11 10 8 8 8 10 9 8 8 8 7 6 4 4 4 4
13 13 8 9 6 7 8 10 8 9 10 8 7 7 6 7 7 7 7 8 9 10 10 11 11 11 11 12 11 10 11 11 11 11 11 10 10 10 11 10 9 8 7 7 6 5 4 5 4
16 17 10 9 8 6 5 5 6 8 9 8 7 7 7 8 8 7 7 8 9 9 10 10 11 11 11 11 10 10 10 10 11 11 11 11 10 11 11 10 10 9 8 7 6 6 6 6 5
18 19 16 11 9 9 6 5 1 6 8 8 7 7 8 8 7 8 8 8 9 10 10 10 10 10 11 11 10 11 10 11 11 11 11 11 11 11 10 10 9 9 8 7 7 7 6 6 6
Wind_Direction
282 260 247 239 234 232 238 239 224 122 116 79 68 27 26 40 50 112 159 145 125 136 144 155 153 150 145 137 132 126 123 118 112 106 101 96 91 87 85 82 79 77 75 74 72 71 70 68 66
284 268 245 238 236 235 227 215 189 144 110 93 94 164 109 85 94 115 139 128 132 139 145 154 153 151 148 141 135 130 128 122 117 112 106 101 96 91 87 84 81 79 77 75 73 72 71 69 67
269 266 239 227 236 244 234 163 159 122 110 126 149 186 52 100 115 130 139 134 134 138 147 151 154 154 150 144 139 135 133 128 123 118 113 106 101 96 91 87 84 83 81 79 76 73 71 69 67
254 235 244 246 244 241 258 145 133 130 132 173 176 143 92 68 96 119 133 139 137 139 143 148 157 156 152 147 143 142 139 135 130 125 120 113 106 101 96 92 89 87 85 82 79 75 72 70 68
247 241 233 246 254 256 226 97 126 158 157 187 220 140 104 89 103 122 142 143 142 144 141 150 158 157 156 152 148 145 143 140 137 132 127 121 114 108 103 99 95 91 87 83 80 77 75 71 67
236 242 237 234 239 234 199 128 158 219 178 178 202 167 119 131 125 139 146 145 146 143 141 152 161 161 160 157 153 151 149 147 144 141 135 130 125 120 113 107 103 97 92 87 83 80 75 70 64
250 254 259 258 244 207 182 148 193 219 213 176 178 174 131 145 136 142 147 151 145 141 142 152 161 163 164 162 158 156 155 153 150 149 144 139 137 133 126 120 113 106 99 91 85 80 74 66 60
267 273 258 260 258 226 146 148 222 240 236 140 153 208 141 140 139 144 150 150 144 144 147 155 164 165 165 163 161 161 160 159 158 155 151 149 150 147 143 139 131 124 115 106 96 85 71 66 56
270 256 257 249 246 228 129 165 208 298 299 139 109 68 112 131 144 145 149 149 149 154 155 159 166 167 167 166 166 163 164 165 162 159 157 158 167 167 164 150 151 154 152 145 139 156 240 254 245
216 246 256 290 335 341 132 187 201 197 249 210 140 110 120 141 154 159 166 170 167 169 168 165 167 167 168 169 164 168 170 169 168 165 167 177 180 169 165 154 168 181 193 203 210 228 247 254 235
216 240 264 282 323 350 346 255 239 218 239 227 186 156 153 164 171 179 183 182 178 174 175 170 167 166 167 164 165 173 173 171 181 173 174 183 169 158 155 164 181 200 212 218 219 233 240 243 231
239 245 253 265 281 323 286 275 264 243 253 281 254 152 161 174 185 191 193 189 178 176 179 173 166 165 166 164 168 171 168 173 182 178 177 175 163 165 169 177 185 198 204 208 219 237 253 257 258
233 250 260 256 219 222 257 267 268 261 265 288 336 137 176 189 197 201 200 194 180 178 177 176 169 167 166 164 168 172 171 173 177 176 178 176 166 171 181 189 184 191 200 201 221 249 271 291 323
242 239 248 248 234 224 237 254 256 253 251 249 239 223 209 210 211 207 202 197 185 177 174 174 173 169 167 168 169 171 172 170 174 172 178 180 175 178 182 185 178 192 199 211 231 265 290 320 324
263 264 257 240 227 223 233 251 245 247 242 239 236 229 223 221 216 213 205 197 187 174 171 174 177 173 171 171 171 171 169 168 170 173 181 184 181 178 178 180 182 192 194 201 221 294 327 318 309
238 243 248 240 220 198 202 251 253 226 216 230 239 240 231 223 215 209 205 196 189 170 169 173 177 177 175 174 173 172 172 172 172 173 180 184 183 180 177 177 187 184 175 178 177 198 309 305 309
230 232 235 235 204 186 200 246 260 228 205 227 237 241 238 227 213 206 201 192 187 175 169 171 174 179 176 172 173 173 171 171 172 173 173 179 183 182 177 181 182 170 164 165 163 143 127 335 329
215 223 232 230 193 190 209 237 255 255 231 232 235 239 241 235 220 205 195 187 184 179 169 168 172 177 172 169 172 172 171 171 167 167 170 174 179 182 178 173 171 161 150 154 158 162 154 178 328
246 249 245 240 185 187 224 244 250 253 246 243 242 241 241 241 230 206 188 178 174 172 166 168 171 177 174 174 177 178 179 170 165 164 169 172 173 176 170 158 157 145 151 160 148 132 105 9 38
238 252 262 269 220 208 240 254 258 252 247 240 238 241 244 247 241 208 179 171 172 173 171 170 173 177 178 178 177 174 167 165 161 157 164 169 170 168 166 158 154 146 143 136 131 127 118 92 92
226 234 244 256 262 241 252 261 253 250 242 239 234 232 238 238 230 206 181 177 173 176 177 177 176 175 175 168 163 157 147 140 151 162 167 167 165 162 162 161 149 144 146 150 144 137 141 147 119
226 224 239 255 268 265 248 271 257 258 247 235 223 219 228 229 212 188 180 180 180 179 173 175 174 173 172 167 169 169 172 170 172 167 163 163 160 157 157 153 146 143 143 144 146 138 138 134 156
222 220 230 241 254 264 261 269 258 241 241 229 209 203 202 196 185 182 181 183 177 167 165 169 170 171 169 171 172 174 174 169 155 156 159 160 154 150 152 150 145 145 145 143 138 134 137 143 154
206 204 234 249 250 250 237 242 264 230 229 208 186 178 173 178 180 174 172 163 159 153 155 162 167 172 171 173 176 179 176 169 161 162 165 162 155 153 153 150 148 146 141 140 141 142 144 147 147
195 181 202 211 218 237 215 224 243 223 201 176 175 171 164 167 163 166 163 162 158 155 160 168 173 174 173 177 181 184 179 171 168 167 167 163 160 161 162 152 152 148 143 142 141 148 159 166 172
198 194 198 197 210 222 200 224 241 219 170 155 166 170 162 153 152 155 158 160 159 161 166 175 179 178 177 180 184 184 176 171 170 168 166 167 166 163 157 156 155 151 149 149 151 159 173 174 185
198 208 221 260 285 286 240 229 226 208 176 167 175 172 168 156 150 153 158 163 162 167 174 180 181 180 180 181 182 180 173 168 166 163 160 161 157 155 155 157 156 153 153 157 159 173 183 182 194
207 190 198 217 222 242 250 245 238 208 192 183 180 172 159 152 152 158 166 169 167 169 173 179 181 181 178 179 179 176 169 166 161 158 160 157 154 153 155 158 158 158 160 164 168 176 185 187 198
202 204 196 201 218 211 231 237 217 185 166 163 163 153 149 156 161 169 169 167 164 164 171 179 180 174 175 176 171 166 166 161 157 159 159 156 153 155 159 160 160 163 168 171 175 184 187 196 208
206 208 200 200 207 215 239 261 100 122 133 139 144 149 151 158 165 166 163 163 165 168 173 177 177 174 174 170 167 166 161 157 158 160 159 156 155 158 160 159 161 167 172 176 181 192 193 199 214
Height
1509 1511 1513 1516 1517 1517 1512 1500 1491 1492 1493 1497 1499 1502 1503 1506 1512 1523 1522 1521 1521 1522 1524 1526 1529 1531 1533 1535 1537 1538 1540 1541 1541 1542 1542 1543 1543 1543 1544 1544 1544 1544 1545 1545 1545 1545 1545 1544 1544
1508 1511 1515 1515 1515 1518 1507 1494 1492 1492 1495 1499 1502 1504 1504 1508 1512 1516 1519 1521 1521 1522 1524 1526 1529 1531 1533 1535 1537 1539 1540 1541 1542 1543 1543 1544 1544 1544 1545 1545 1545 1545 1546 1546 1546 1546 1545 1545 1545
1509 1511 1514 1511 1510 1509 1498 1488 1490 1492 1497 1500 1503 1504 1506 1510 1513 1516 1518 1520 1521 1523 1524 1527 1529 1531 1534 1536 1537 1539 1540 1542 1543 1543 1544 1545 1545 1545 1546 1546 1546 1546 1546 1547 1547 1547 1547 1547 1547
1511 1513 1512 1509 1505 1495 1489 1486 1488 1493 1498 1501 1502 1504 1508 1511 1513 1516 1518 1520 1521 1523 1524 1527 1529 1531 1533 1535 1537 1539 1541 1542 1543 1544 1545 1545 1546 1546 1546 1547 1547 1547 1548 1548 1548 1548 1548 1548 1548
1511 1511 1510 1508 1501 1489 1485 1486 1489 1493 1497 1500 1501 1502 1507 1511 1513 1515 1518 1520 1521 1523 1524 1527 1529 1531 1533 1535 1537 1539 1540 1542 1543 1544 1545 1546 1546 1547 1547 1548 1548 1548 1549 1549 1549 1549 1549 1549 1549
1511 1507 1509 1507 1497 1487 1485 1488 1491 1493 1495 1498 1500 1501 1507 1510 1512 1515 1517 1520 1522 1523 1524 1526 1529 1531 1533 1535 1537 1539 1540 1542 1543 1544 1545 1546 1547 1547 1548 1548 1549 1549 1550 1550 1550 1550 1550 1550 1550
1509 1506 1505 1498 1492 1487 1486 1488 1492 1493 1493 1495 1498 1500 1505 1508 1510 1514 1517 1520 1521 1523 1523 1525 1528 1530 1532 1534 1536 1538 1540 1541 1543 1544 1545 1546 1547 1548 1548 1549 1549 1550 1550 1551 1551 1551 1551 1551 1551
1506 1504 1500 1495 1491 1488 1485 1489 1491 1493 1493 1495 1497 1499 1503 1507 1509 1512 1516 1519 1521 1522 1522 1524 1527 1529 1531 1533 1535 1537 1539 1541 1542 1544 1545 1546 1547 1548 1549 1549 1550 1550 1551 1551 1551 1551 1552 1552 1552
1505 1506 1501 1492 1489 1486 1485 1489 1492 1493 1494 1495 1497 1500 1503 1505 1508 1511 1514 1517 1519 1520 1521 1522 1525 1527 1529 1532 1534 1536 1538 1540 1541 1543 1544 1546 1547 1548 1549 1549 1550 1550 1551 1551 1551 1552 1552 1552 1552
1503 1504 1496 1486 1484 1485 1486 1489 1492 1494 1494 1495 1497 1499 1502 1504 1506 1508 1511 1513 1515 1517 1520 1521 1523 1525 1527 1530 1532 1534 1536 1538 1540 1542 1543 1545 1546 1548 1548 1549 1550 1550 1551 1551 1551 1552 1552 1552 1552
1497 1497 1491 1487 1486 1487 1488 1490 1491 1493 1494 1493 1494 1496 1499 1502 1504 1506 1508 1510 1512 1514 1517 1519 1521 1523 1525 1527 1529 1532 1534 1537 1539 1541 1542 1544 1546 1547 1548 1549 1549 1550 1550 1551 1551 1551 1552 1552 1552
1493 1490 1489 1487 1487 1489 1491 1491 1491 1491 1492 1492 1493 1493 1495 1498 1501 1503 1505 1507 1509 1511 1513 1516 1518 1520 1523 1525 1527 1530 1532 1534 1537 1539 1541 1543 1544 1546 1547 1548 1549 1549 1550 1550 1551 1551 1552 1552 1552
1489 1488 1487 1486 1487 1489 1491 1491 1491 1490 1490 1490 1491 1493 1494 1496 1498 1500 1502 1504 1505 1507 1509 1512 1515 1517 1519 1522 1524 1527 1529 1532 1535 1537 1539 1541 1542 1544 1546 1547 1548 1549 1549 1550 1550 1550 1551 1551 1550
1484 1485 1485 1484 1485 1487 1488 1489 1489 1487 1488 1488 1489 1490 1492 1493 1495 1496 1498 1500 1501 1502 1505 1508 1511 1513 1516 1518 1521 1523 1526 1529 1532 1534 1537 1539 1541 1543 1544 1546 1547 1547 1548 1549 1549 1549 1549 1549 1549
1483 1483 1482 1481 1481 1483 1486 1487 1484 1483 1484 1484 1485 1486 1487 1488 1490 1491 1493 1495 1497 1498 1500 1503 1506 1509 1512 1515 1518 1520 1523 1526 1529 1531 1534 1536 1539 1541 1542 1544 1545 1546 1546 1547 1547 1547 1547 1547 1546
1481 1484 1486 1478 1476 1479 1487 1488 1478 1477 1478 1479 1480 1481 1482 1483 1484 1486 1488 1490 1492 1494 1495 1498 1501 1505 1508 1510 1514 1517 1520 1523 1525 1528 1531 1533 1536 1538 1540 1541 1543 1544 1544 1545 1545 1545 1545 1544 1544
1482 1484 1482 1475 1470 1474 1480 1482 1475 1473 1473 1474 1475 1476 1477 1477 1478 1480 1482 1484 1487 1489 1490 1493 1496 1500 1503 1506 1510 1513 1516 1519 1522 1525 1527 1530 1533 1535 1537 1539 1540 1541 1542 1542 1543 1543 1543 1542 1541
1479 1478 1475 1472 1467 1470 1475 1476 1472 1470 1470 1470 1470 1471 1471 1471 1472 1473 1475 1478 1481 1484 1486 1487 1491 1495 1498 1502 1506 1509 1513 1516 1518 1521 1524 1527 1530 1532 1534 1536 1538 1539 1539 1540 1540 1540 1540 1540 1539
1468 1468 1468 1464 1461 1467 1471 1471 1468 1466 1465 1464 1464 1464 1465 1465 1467 1468 1469 1471 1474 1478 1480 1482 1485 1489 1493 1496 1499 1503 1507 1511 1514 1517 1520 1523 1526 1529 1531 1533 1535 1536 1537 1537 1538 1538 1538 1537 1536
1466 1468 1468 1463 1459 1464 1468 1467 1462 1459 1458 1457 1457 1458 1458 1459 1461 1462 1463 1465 1467 1471 1474 1476 1479 1483 1486 1490 1493 1498 1502 1506 1510 1514 1517 1520 1523 1525 1528 1530 1531 1533 1534 1534 1535 1535 1535 1535 1534
1461 1465 1466 1466 1461 1461 1466 1467 1459 1451 1449 1449 1450 1451 1452 1453 1455 1456 1458 1459 1462 1464 1468 1471 1473 1477 1481 1485 1490 1494 1499 1503 1506 1509 1512 1516 1519 1522 1524 1527 1528 1529 1530 1531 1532 1532 1532 1532 1532
1458 1456 1460 1463 1468 1470 1466 1473 1457 1448 1445 1442 1442 1444 1446 1447 1449 1450 1452 1454 1456 1459 1462 1466 1469 1472 1476 1480 1483 1487 1490 1494 1498 1503 1507 1512 1515 1518 1521 1523 1525 1526 1527 1528 1529 1530 1530 1530 1530
1450 1451 1456 1460 1466 1470 1466 1470 1455 1442 1441 1437 1436 1438 1440 1442 1444 1445 1447 1449 1451 1454 1457 1460 1464 1467 1471 1474 1478 1482 1487 1491 1495 1500 1504 1507 1511 1514 1517 1519 1521 1523 1524 1525 1526 1527 1527 1527 1527
1445 1452 1456 1459 1466 1474 1464 1467 1454 1440 1434 1431 1431 1433 1436 1438 1440 1441 1443 1444 1446 1449 1451 1455 1458 1462 1466 1470 1474 1478 1482 1487 1491 1495 1499 1503 1506 1510 1513 1515 1518 1519 1521 1522 1523 1524 1524 1525 1525
1442 1456 1472 1477 1477 1469 1451 1454 1443 1427 1424 1425 1428 1430 1432 1434 1436 1437 1438 1439 1441 1443 1446 1449 1453 1457 1461 1466 1470 1474 1479 1483 1486 1490 1494 1498 1501 1505 1508 1511 1514 1516 1517 1519 1520 1521 1521 1521 1521
1437 1447 1462 1469 1465 1453 1444 1445 1431 1419 1419 1421 1424 1427 1430 1431 1433 1434 1435 1436 1438 1439 1442 1445 1449 1453 1457 1462 1466 1471 1475 1479 1483 1487 1490 1494 1498 1501 1505 1508 1510 1512 1514 1515 1516 1517 1518 1518 1518
1433 1437 1439 1447 1446 1452 1442 1429 1421 1415 1416 1419 1422 1425 1427 1429 1430 1431 1432 1433 1435 1436 1438 1442 1445 1449 1454 1458 1462 1467 1471 1475 1479 1483 1487 1491 1495 1498 1501 1504 1506 1508 1510 1512 1513 1513 1514 1514 1514
1420 1429 1439 1447 1458 1461 1445 1436 1428 1417 1416 1417 1419 1422 1424 1426 1427 1429 1430 1431 1432 1434 1436 1439 1443 1446 1450 1455 1459 1463 1467 1472 1476 1480 1483 1487 1491 1494 1497 1500 1502 1504 1506 1508 1509 1510 1510 1510 1510
1419 1423 1428 1437 1441 1447 1445 1432 1406 1407 1409 1413 1415 1418 1421 1423 1425 1426 1427 1429 1430 1432 1434 1436 1440 1443 1447 1451 1455 1460 1464 1468 1472 1476 1480 1483 1487 1490 1493 1496 1498 1500 1502 1504 1505 1505 1506 1506 1506
1407 1411 1419 1432 1434 1431 1437 1428 1400 1401 1404 1408 1412 1416 1418 1421 1422 1424 1425 1426 1428 1429 1431 1434 1437 1440 1444 1448 1452 1456 1460 1464 1468 1472 1476 1480 1483 1487 1489 1492 1494 1496 1498 1499 1500 1501 1501 1502 1501